Location: Borotín
(49.5055°N, 14.6142°E)
Time: 06:40:38
(UTC+00:00)

Cosmos 2228 - Pass Details

Date: 27 May 2022
Orbit: 586 x 617 km, 82.5° (Epoch: 28 June)

Event Time Altitude Azimuth Distance (km) Brightness Sun altitude
Rises 02:07:48 0° 342° (NNW) 2,894 6.9 -7.7°
Reaches altitude 10° 02:10:11 10° 334° (NNW) 1,979 5.9 -7.5°
Maximum altitude 02:14:08 34° 269° (W) 1,007 3.8 -7.0°
Drops below altitude 10° 02:18:02 10° 205° (SSW) 1,948 5.0 -6.6°
Enters shadow 02:19:06 - 200° (SSW) 2,350 5.5 -6.4°
